Theta_e
334 329 328 327 328 326 327 327 327 327 327 326 324 325 326 327 324 324 326 324 322 326 329 329 328 328 328 329 331 332 330 329 327
336 332 328 327 326 327 327 326 328 330 330 329 329 328 323 319 320 323 324 326 324 324 327 329 328 329 329 328 328 329 329 328 328
335 334 332 328 327 328 328 328 328 329 331 332 331 330 327 323 322 324 322 324 326 325 324 327 328 328 328 329 328 327 327 327 328
329 332 330 328 327 326 327 328 328 327 329 329 330 329 326 323 322 320 322 323 326 327 326 325 326 327 329 328 331 330 328 327 327
326 328 328 328 329 327 321 323 327 327 325 326 323 323 324 325 324 324 323 323 324 326 326 326 325 326 327 328 329 329 331 329 328
330 329 328 326 323 321 322 323 325 327 327 326 327 328 327 327 326 325 324 322 324 324 326 327 327 326 326 327 328 329 328 331 330
329 328 326 328 329 329 329 330 330 330 329 329 329 328 328 328 328 327 326 326 326 325 325 326 327 328 327 327 327 328 329 329 330
329 329 329 330 331 330 330 331 331 331 331 330 330 330 329 329 328 328 328 328 328 328 327 327 328 328 329 327 327 327 327 329 329
330 331 331 331 331 332 332 332 332 332 332 332 331 331 331 331 330 330 330 329 329 329 330 329 329 330 330 331 329 327 328 327 327
333 333 333 333 333 332 332 331 331 330 330 330 329 328 329 328 329 328 328 329 330 330 330 331 331 331 330 331 332 330 328 327 328
334 333 333 332 332 331 330 329 327 326 325 325 325 324 324 324 324 325 325 325 327 328 328 330 331 331 331 330 330 330 331 330 328
333 332 330 326 326 324 323 319 317 316 316 315 319 319 319 318 321 321 321 322 323 327 327 327 327 328 329 329 329 328 329 329 330
328 321 318 316 316 313 312 311 312 311 311 312 312 312 311 312 314 313 314 316 316 315 315 318 318 323 325 326 327 328 328 328 328
314 312 311 311 311 311 310 309 309 308 308 308 307 308 309 307 309 310 308 305 306 309 311 311 312 315 317 322 325 326 325 326 326
310 309 308 308 308 307 306 305 304 304 304 303 305 302 305 306 306 303 301 305 305 306 309 309 310 310 309 311 313 315 318 319 322
305 305 304 303 304 303 302 301 300 302 301 303 301 303 303 303 302 299 304 302 304 305 303 305 304 302 303 304 305 307 307 309 312
301 300 300 299 300 299 299 298 299 300 300 300 300 300 300 301 299 301 301 302 300 299 301 300 299 300 300 300 300 304 308 310 313
298 298 298 297 298 297 297 297 297 299 298 298 298 298 299 298 300 299 300 298 298 298 297 297 298 298 299 299 299 302 306 308 310
296 296 296 296 296 295 295 295 295 297 298 297 297 296 297 297 298 298 296 296 295 296 296 296 298 297 296 299 299 301 300 302 303
296 295 295 295 294 294 293 293 294 294 295 296 296 295 295 294 294 295 294 294 294 295 295 297 296 295 296 294 295 297 297 298 299
Wind_Speed
3 1 2 1 6 7 4 3 4 4 5 6 6 8 9 10 10 11 11 10 11 11 7 9 10 10 12 12 12 12 12 12 11
6 4 1 2 5 5 4 4 5 7 8 8 8 9 9 12 13 12 13 10 12 13 13 13 12 13 13 14 15 15 15 15 14
3 6 3 1 5 5 6 6 8 9 9 9 11 12 13 14 13 14 14 11 14 15 16 16 16 16 16 17 17 17 18 18 17
1 5 4 4 7 8 9 10 10 11 11 12 13 15 16 18 18 16 17 18 16 18 18 18 19 18 19 20 20 21 20 19 19
5 4 6 8 9 12 12 12 12 12 12 14 15 15 16 19 16 15 16 14 16 19 19 19 20 21 22 23 24 23 23 22 22
3 5 7 11 12 13 13 12 12 12 14 13 11 15 17 16 12 16 18 18 19 20 21 22 23 24 25 26 27 27 27 26 26
6 7 8 7 8 11 9 11 12 13 12 13 14 15 17 17 17 18 21 22 21 21 22 24 25 26 26 28 29 29 30 31 30
4 5 7 7 9 11 11 14 15 14 15 17 18 18 19 20 23 24 24 24 25 24 25 26 26 28 29 30 30 31 33 33 34
2 4 6 8 8 9 13 13 15 18 19 20 19 20 21 22 25 24 25 26 26 26 26 27 28 28 31 32 32 34 35 35 36
3 5 7 9 9 10 12 14 16 19 18 19 19 22 21 23 22 23 23 24 26 27 27 27 28 28 29 31 34 36 36 37 39
4 6 8 8 10 12 13 13 15 16 16 16 17 18 21 24 24 25 26 27 26 26 27 25 26 27 28 29 31 35 36 38 40
4 7 9 12 11 11 11 14 15 16 18 19 19 20 20 23 25 26 27 28 27 25 25 25 25 24 26 28 29 32 35 35 38
8 9 10 11 10 14 12 16 18 18 20 21 22 23 26 25 26 28 27 18 18 22 24 22 26 30 31 31 31 31 31 33 35
13 12 10 12 12 13 15 16 18 21 23 21 24 24 24 28 26 19 23 31 32 29 27 31 27 24 26 25 26 28 32 32 34
12 12 12 12 13 15 15 17 18 18 21 23 21 26 22 21 17 28 36 29 30 30 24 29 26 29 33 32 30 28 28 30 34
14 13 13 14 14 14 15 16 17 17 21 15 23 13 14 18 24 38 26 32 27 23 32 28 32 35 37 36 34 37 40 38 38
14 14 13 13 13 13 14 16 17 15 20 16 15 4 12 10 27 23 29 20 28 35 27 33 40 32 35 40 38 36 34 36 34
14 13 12 12 11 12 13 15 16 16 20 19 9 4 3 15 6 26 19 30 30 28 34 30 30 34 31 35 40 39 31 28 27
13 11 11 10 9 11 13 14 15 15 17 19 12 18 22 7 9 5 32 21 29 30 28 32 25 35 37 34 32 30 32 28 31
12 10 10 10 11 12 13 15 16 16 17 18 20 23 20 23 9 14 11 24 24 26 29 24 33 32 31 42 35 34 36 39 39
Wind_Direction
195 227 129 32 12 13 16 3 356 340 343 329 310 292 282 284 293 292 286 276 271 268 263 270 262 267 270 265 269 269 271 271 268
183 198 318 21 347 347 355 318 306 296 288 290 288 295 301 280 280 273 259 268 261 258 260 264 263 263 265 262 262 265 267 265 265
144 197 183 236 301 313 305 311 303 295 292 287 285 286 295 293 287 281 285 264 260 259 260 260 260 259 259 257 259 261 260 261 259
346 168 214 252 274 294 300 301 298 291 288 286 283 282 288 289 290 281 269 274 268 264 263 261 260 259 257 256 258 255 257 256 256
264 263 268 270 282 294 293 295 296 291 287 281 283 284 287 290 291 283 280 274 265 264 266 265 262 261 258 256 256 258 253 254 254
220 239 261 288 292 295 300 304 311 316 304 301 293 289 282 298 290 282 285 280 273 271 270 270 269 268 266 263 260 257 255 254 252
195 276 292 317 330 325 324 322 321 306 311 312 314 304 296 288 279 285 280 278 273 270 271 272 271 270 268 265 264 262 259 256 255
299 317 310 331 323 319 327 319 315 310 305 291 290 285 287 285 283 281 282 277 275 270 269 269 270 271 271 268 265 262 261 260 257
293 301 305 307 310 311 307 302 312 308 311 310 306 304 296 292 287 287 289 285 284 277 271 270 271 275 276 272 269 266 264 260 259
333 327 313 318 333 335 333 327 321 322 320 320 317 315 313 305 305 304 304 300 296 294 289 281 277 277 283 281 275 267 262 261 260
330 326 344 339 340 337 337 340 337 340 335 328 328 323 316 312 311 308 307 303 303 297 296 291 286 282 284 287 285 283 274 264 258
25 18 21 19 10 3 3 0 352 348 343 334 326 322 323 321 313 311 310 307 306 298 290 292 296 290 285 285 285 286 287 281 272
87 63 52 31 22 16 6 2 354 348 341 338 334 329 323 322 315 317 322 347 349 338 336 326 318 305 297 292 290 288 286 285 285
68 53 37 37 28 16 8 359 358 350 346 344 331 328 317 315 324 349 340 334 336 341 333 332 336 332 339 326 312 305 298 295 293
72 53 30 30 27 16 8 5 353 354 351 340 337 322 326 339 342 343 337 340 334 337 336 334 335 327 322 324 320 318 319 315 306
57 53 32 23 29 16 12 5 2 358 355 341 338 333 335 326 339 329 333 321 328 325 327 324 322 324 321 321 318 313 309 305 301
45 38 32 24 24 13 16 10 4 350 359 354 330 334 317 337 320 313 311 319 325 324 319 316 314 314 313 313 314 313 311 313 307
40 31 29 23 23 14 13 5 4 352 351 355 346 341 308 319 313 316 312 323 316 316 313 316 313 313 320 317 306 305 314 315 314
37 34 31 23 18 9 6 358 357 352 339 338 335 323 311 314 315 299 310 311 311 310 311 309 313 321 313 307 315 319 321 320 314
24 34 25 14 5 359 356 351 347 341 333 327 326 318 311 310 303 307 309 306 307 305 305 307 310 312 305 307 308 314 316 311 309